Location: Miles
(41.4492°N, 81.6087°W)
Time: 20:43:01
(UTC+00:00)

Vanguard 2 Rocket - Pass Details

Date: 19 September 2024
Orbit: 553 x 3298 km, 32.9° (Epoch: 11 October)

Event Time Altitude Azimuth Distance (km) Brightness Sun altitude
Rises 09:04:35 0° 268° (W) 4,857 - -23.8°
Reaches altitude 10° 09:07:20 10° 264° (W) 4,172 - -23.3°
Exits shadow 09:12:04 31° 251° (WSW) 3,250 9.1 -22.5°
Maximum altitude 09:19:08 57° 190° (S) 2,924 9.2 -21.3°
Drops below altitude 10° 09:37:25 10° 119° (ESE) 6,191 11.7 -18.1°
Sets 09:42:36 0° 116° (ESE) 7,278 12.2 -17.2°
